Weather History for North Las Vegas, NV

Change the Weather History Date:

Saturday, November 24, 2012

  Actual Average Record
Temperature  
Mean Temperature 58 °F -  
Max Temperature 70 °F 66 °F 80 °F (1954)
Min Temperature 45 °F 39 °F 21 °F (1955)
Degree Days  
Heating Degree Days 8    
Growing Degree Days 8 (Base 50)    
Moisture  
Dew Point 26 °F    
Average Humidity 33    
Maximum Humidity 49    
Minimum Humidity 16    
Precipitation  
Precipitation 0.00 in - - ()
Sea Level Pressure  
Sea Level Pressure 30.16 in    
Wind  
Wind Speed 4 mph (NW)    
Max Wind Speed 8 mph    
Max Gust Speed -    
Visibility 10 miles    
Events      
Averages and records for this station are not official NWS values.
T = Trace of Precipitation, MM = Missing Value Source: NWS Daily Summary

Daily Weather History Graph

Daily Weather History Graph

Search for Another Location

Airport:

Trip Planner

Search our weather history database for the weather conditions in past years. The results will help you decide how hot, cold, wet, or windy it might be!

Date:

Astronomy

Nov. 24, 2012 Rise Set
Actual Time 6:27 AM PST 4:27 PM PST
Civil Twilight 5:59 AM PST 4:55 PM PST
Nautical Twilight 5:27 AM PST 5:27 PM PST
Astronomical Twilight 4:57 AM PST 5:58 PM PST
Moon 2:10 PM PST (11/24) 2:53 AM PST (11/24)
Length of Visible Light 10h 56m
Length of Day
10h 00m
Waxing Gibbous, 88% of the Moon is Illuminated
Nov 24
Waxing Gibbous
Nov 28
Full
Dec 6
Last Quarter
Dec 13
New
Dec 19
First Quarter

Hourly Weather History & Observations

Time (PST) Temp. Windchill Dew Point Humidity Pressure Visibility Wind Dir Wind Speed Gust Speed Precip Events Conditions
12:53 AM 50.0 °F - 27.0 °F 41% 30.25 in 10.0 mi NW 5.8 mph - N/A   Clear
1:53 AM 52.0 °F - 25.0 °F 35% 30.23 in 10.0 mi NW 4.6 mph - N/A   Clear
2:53 AM 48.9 °F - 26.1 °F 41% 30.24 in 10.0 mi NW 4.6 mph - N/A   Clear
3:53 AM 48.0 °F - 27.0 °F 44% 30.22 in 10.0 mi NW 6.9 mph - N/A   Clear
4:53 AM 46.9 °F - 28.0 °F 48% 30.25 in 10.0 mi Calm Calm - N/A   Clear
5:53 AM 46.9 °F - 27.0 °F 46% 30.25 in 10.0 mi NW 4.6 mph - N/A   Clear
6:53 AM 45.0 °F 42.6 °F 27.0 °F 49% 30.27 in 10.0 mi WNW 4.6 mph - N/A   Clear
7:53 AM 51.1 °F - 28.0 °F 41% 30.27 in 10.0 mi WNW 3.5 mph - N/A   Clear
8:53 AM 57.9 °F - 26.1 °F 30% 30.27 in 10.0 mi Calm Calm - N/A   Clear
9:53 AM 62.1 °F - 23.0 °F 22% 30.25 in 10.0 mi Calm Calm - N/A   Clear
10:53 AM 64.9 °F - 24.1 °F 21% 30.22 in 10.0 mi SE 3.5 mph - N/A   Clear
11:53 AM 66.9 °F - 25.0 °F 21% 30.17 in 10.0 mi Calm Calm - N/A   Clear
12:53 PM 66.9 °F - 21.0 °F 17% 30.14 in 10.0 mi Calm Calm - N/A   Clear
1:53 PM 69.1 °F - 21.9 °F 17% 30.11 in 10.0 mi Calm Calm - N/A   Clear
2:53 PM 70.0 °F - 21.9 °F 16% 30.09 in 10.0 mi Calm Calm - N/A   Clear
3:53 PM 69.1 °F - 21.0 °F 16% 30.08 in 10.0 mi Calm Calm - N/A   Clear
4:53 PM 64.9 °F - 23.0 °F 20% 30.08 in 10.0 mi Calm Calm - N/A   Clear
5:53 PM 59.0 °F - 26.6 °F 29% 30.04 in 10.0 mi WNW 5.8 mph - N/A   Clear
6:53 PM 57.0 °F - 30.9 °F 37% 30.09 in 10.0 mi WNW 5.8 mph - N/A   Clear
7:53 PM 53.1 °F - 28.9 °F 40% 30.08 in 10.0 mi NW 4.6 mph - N/A   Clear
8:53 PM 52.0 °F - 28.9 °F 41% 30.07 in 10.0 mi NNW 4.6 mph - N/A   Clear
9:53 PM 52.0 °F - 28.9 °F 41% 30.06 in 10.0 mi WNW 6.9 mph - N/A   Clear
10:53 PM 50.0 °F - 28.0 °F 43% 30.05 in 10.0 mi NW 4.6 mph - N/A   Clear
11:53 PM 52.0 °F - 26.1 °F 37% 30.04 in 10.0 mi WNW 8.1 mph - N/A   Clear